Regional Weather Roundup
Issued by NWS Green Bay, WI

Home | Current Version | Previous Version | Graphics & Text | Print | Product List | Glossary Off
Versions: 1 2 3 4 5 6 7 8 9 10 11 12 13 14 15 16 17 18 19 20 21 22 23 24 25 26 27 28 29 30 31 32 33 34 35 36 37 38 39 40 41 42 43 44 45 46 47 48 49 50

388
ASUS43 KGRB 310611
RWRGRB

NORTH-CENTRAL AND NORTHEAST WISCONSIN REGIONAL WEATHER ROUNDUP
NATIONAL WEATHER SERVICE GREEN BAY WI
100 AM CDT WED AUG 31 2016

WIZ005-009-010>012-018-019-310700-
NORTH CENTRAL WISCONSIN

CITY           SKY/WX    TMP DP  RH WIND       PRES   REMARKS
IRONWOOD       FAIR      52  50  93 CALM      30.16S FOG
MANITOWISH WTR FAIR      47  47 100 CALM      30.16S
ARBOR VITAE    FAIR      52  50  94 CALM      30.16R
EAGLE RIVER    FAIR      49  49 100 CALM      30.16R FOG
LAND O LAKES   FAIR      46  46 100 CALM      30.17R
RHINELANDER    FAIR      49  48  97 CALM      30.17R
PHILLIPS       FAIR      52  52 100 CALM      30.16S
ANTIGO         FAIR      52  50  92 CALM      30.16S
TOMAHAWK       FAIR      46  45  96 CALM      30.17R
MERRILL        FAIR      50  49  97 CALM      30.17R
$$

WIZ013-073-310700-
NORTHEAST WISCONSIN

CITY           SKY/WX    TMP DP  RH WIND       PRES   REMARKS
IRON MOUNTAIN  FAIR      54  49  83 CALM      30.12F
MARINETTE      FAIR     N/A N/A N/A N3        30.13R
OCONTO         FAIR      61  57  88 N3        30.12R
$$

WIZ017-030-035>037-045-310700-
CENTRAL WISCONSIN

CITY           SKY/WX    TMP DP  RH WIND       PRES   REMARKS
MEDFORD        FAIR      49  49 100 CALM      30.16R
WAUSAU         FAIR      57  50  77 CALM      30.14R
MOSINEE        FAIR      57  52  82 NE3       30.16S
MARSHFIELD     FAIR      60  51  72 CALM      30.16R
WISC RAPIDS    FAIR      62  54  74 NE6       30.16R
STEVENS POINT  FAIR      57  51  80 CALM      30.16R
WAUPACA        FAIR      65  57  77 N5        30.14R
SHAWANO        FAIR      64  58  80 N6        30.13F
CLINTONVILLE   FAIR      63  57  82 CALM      30.13S
WAUTOMA        FAIR      65  58  78 N7        30.13R
$$

WIZ038-039-048-051-310700-
FOX VALLEY

CITY           SKY/WX    TMP DP  RH WIND       PRES   REMARKS
NWS GREEN BAY  FAIR      65  63  93 N9        30.12R
APPLETON       MOCLDY    64  57  77 NE10      30.11R
OSHKOSH        FAIR      68  60  75 N9        30.10R
FOND DU LAC    MOCLDY    70  62  76 N8        30.09R
$$

WIZ022-050-052-310700-
EAST CENTRAL WISCONSIN

CITY           SKY/WX    TMP DP  RH WIND       PRES   REMARKS
EPHRAIM        FAIR      64  55  72 NE8       30.11S
WASHINGTON ISL NOT AVBL
STURGEON BAY   FAIR      64  54  69 NE8       30.12R
MANITOWOC      FAIR      68  59  73 N7        30.11R
SHEBOYGAN      MOCLDY    68  61  78 NE15G25   30.09R
$$

LMZ563-521-522-541>543-310700-
LAKESHORE

STATION/POSITION TIME  TEMP    WIND        PRES    VSBY  WAVE
                       AIR SEA DIR/SP/G                  HT/PER
                 (UTC) (F)     (DEG/KT/KT) (MB)    (MI)  (FT/S)
SHEBOYGAN LKSHOR 0600   65     360/ 18/ 20 1018.3R
KEWAUNEE LKSHORE 0500   67      10/  9/ 15 1018.5R
NORTHPORT PIER   0500   67      10/  8/ 11 1019.3
N MID LAKE BUOY  0550   67 71  360/ 16/ 19 1018.5R         2/ 4
S GREEN BAY BUOY 0500   69 72   50/ 17/ 19 1018.8
SISTER BAY LKSHO 0537   65      20/  8/ 12   N/A
CHAMBERS ISLAND  0500   68     350/ 14/ 16 1019.3R
MENOMINEE LKSHOR 0500   64     340/  8/ 10 1018.9R
$$




USA.gov is the U.S. government's official web portal to all federal, state and local government web resources and services.